This is the latest recevied weather packets stored in our database for station/object N9CQL. If no packets are shown the sender has not sent any weather packets the latest 10 day(s).
| Time | Temp. | Humidity | Pressure | Rain* | Wind** | Luminosity | Snow |
|---|---|---|---|---|---|---|---|
| 1778077139 | 11.11° C | 50% | 1013 hPa | 0 mm | - | 141 W/m² | - |
| 1778076836 | 11.67° C | 44% | 1012.9 hPa | 0 mm | - | 136 W/m² | - |
| 1778076534 | 10.56° C | 45% | 1013 hPa | 0 mm | - | 246 W/m² | - |
| 1778076231 | 10.56° C | 43% | 1013 hPa | 0 mm | - | 165 W/m² | - |
| 1778075928 | 11.11° C | 46% | 1012.8 hPa | 0 mm | - | 161 W/m² | - |
| 1778075625 | 11.11° C | 49% | 1012.7 hPa | 0 mm | - | 156 W/m² | - |
| 1778075321 | 10.56° C | 49% | 1012.9 hPa | 0 mm | - | 120 W/m² | - |
| 1778075018 | 10.56° C | 48% | 1012.8 hPa | 0 mm | - | 123 W/m² | - |
| 1778074715 | 10° C | 49% | 1012.5 hPa | 0 mm | - | 105 W/m² | - |
| 1778074411 | 10° C | 51% | 1012.4 hPa | 0 mm | - | 90 W/m² | - |
| 1778074108 | 10° C | 51% | 1012.6 hPa | 0 mm | - | 94 W/m² | - |
| 1778073805 | 9.44° C | 50% | 1012.2 hPa | 0 mm | - | 116 W/m² | - |
| 1778073503 | 10° C | 53% | 1012.1 hPa | 0 mm | - | 128 W/m² | - |
| 1778073199 | 9.44° C | 56% | 1012.4 hPa | 0 mm | - | 117 W/m² | - |
| 1778072897 | 8.89° C | 54% | 1012.4 hPa | 0 mm | - | 101 W/m² | - |
| 1778072593 | 8.89° C | 55% | 1012.4 hPa | 0 mm | - | 88 W/m² | - |
| 1778072291 | 8.89° C | 60% | 1012.1 hPa | 0 mm | - | 94 W/m² | - |
| 1778071989 | 8.89° C | 63% | 1012.1 hPa | 0 mm | - | 95 W/m² | - |
| 1778071687 | 8.89° C | 66% | 1012 hPa | 0 mm | - | 89 W/m² | - |
| 1778071384 | 8.33° C | 67% | 1011.9 hPa | 0 mm | - | 81 W/m² | - |
| 1778071081 | 8.33° C | 67% | 1011.8 hPa | 0 mm | - | 70 W/m² | - |
| 1778070780 | 7.78° C | 67% | 1011.8 hPa | 0 mm | - | 63 W/m² | - |
| 1778070476 | 7.78° C | 67% | 1011.9 hPa | 0 mm | - | 64 W/m² | - |
| 1778070173 | 7.78° C | 68% | 1011.9 hPa | 0 mm | - | 60 W/m² | - |
| 1778069872 | 7.22° C | 70% | 1011.8 hPa | 0 mm | - | 55 W/m² | - |
* Rain latest hour (hover to see other rain measurements)
** Current wind speed in m/s (hover to see current wind gust speed)